STARLINK-6272, 56420

Orbit data source: Space-Track

STARLINK-6272, 56420 is a payload satellite owned by SpaceX/Seattle (US) in LEO that was launched on Thu, 04 May 2023 UTC via an FALCON 9 launch vehicle from the Air Force Eastern Test Range (AFETR). Payload-class satellites include a variety of spacecraft equipped with specific instruments for various scientific and technological missions. These include communications satellites like Starlink; space stations such as the ISS; scientific satellites like the Hubble; Earth observation satellites from companies like Planet Labs, Umbra, and HawkEye 360; GPS; miniature CubeSats for education and research; and military/defense satellites.

Loading next visibility...
Identifier
56420, 2023-061AY
Orbit
LEO
Country
Flag of USUS
Related business
Manufacturer
SpaceX/Seattle
Mission
Operational Commercial Communications
Bus & Motor
STARLINK, Unknown motor
Mass
305 kg wet, ~290 kg dry
Launch date (UTC)
2023-05-04 (3 years ago)
Launch vehicle
FALCON 9
Launch site
Air Force Eastern Test Range (AFETR)
Object type
Payload
Rocket body
Debris
Shape & HBR
Box + 1 Pan, 10.1 m
Radar Cross Section
11.087 m², Large (>1 m²)

Expand to show TLE details & history
Last TLE update: 3 days ago

TLE from 3 days ago
0 STARLINK-6272
1 56420U 23061AY  26170.91050502  .00000438  00000-0  25456-4 0  9998
2 56420  43.0005 322.2113 0001316 268.8778  91.1923 15.27570775172597
Epoch: 2026-06-19T21:51Z
TLE epoch observation values (Epoch: 2026-06-19T21:51:07.633Z)
Latitude
-0.00002°
Longitude
86.29677°
Altitude
482.871 km
Speed
7.626 km/s
True Right ascension
21h 28m 50s
True Declination
0° 00' 00"
Sunlit
Object was in full shadow at epoch
Visualization orbit readout
Latitude
Unknown
Longitude
Unknown
Altitude
Unknown
Speed
Unknown
Apparent Right ascension
Unknown
Apparent Declination
Unknown
Sunlit
N/A
Visualization observer readout
Local Sidereal Time
21:33:56
Azimuth
Unknown
Elevation
Unknown
Doppler factor
Unknown
Orbital elements
Apogee altitude
485.925 km
Perigee altitude
484.119 km
Semi-major axis
6,863.159 km
Eccentricity
0.00013
Inclination
43.0005°
RAAN
322.2113°
Arg. of periapsis
268.8778°
True anomaly
91.20738°
Mean anomaly
91.1923°
Eccentric anomaly
91.19984°
Mean motion
3.81731 °/min
Orbital period
94.31 mins
BSTAR
0.000025456
Loading maneuver chart data...
Computing Atmospheric mass density...
Loading historical data...
Loading historical data...
Loading historical data...
Loading historical data...
Loading historical data...
Loading historical data...
Loading historical data...

Documentation

Showing up to 5 results
|